Regional Weather Roundup
Issued by NWS Portland, ME

Home | Current Version | Previous Version | Text Only | Print | Product List | Glossary On
Versions: 1 2 3 4 5 6 7 8 9 10 11 12 13 14 15 16 17 18 19 20 21 22 23 24 25 26 27 28 29 30 31 32 33 34 35 36 37 38 39 40 41 42 43 44 45 46 47 48 49 50
835
ASUS41 KGYX 282010
RWRGYX
WEATHER ROUNDUP FOR MAINE AND NEW HAMPSHIRE
NATIONAL WEATHER SERVICE GRAY ME
400 PM EDT THU JUL 28 2016

MEZ002-005-006-010-012-015-018-020-021-024-026-027-029-282100-
MAINE

CITY           SKY/WX    TMP DP  RH WIND       PRES   REMARKS
PORTLAND       CLOUDY    82  63  52 S9        29.81F
SANFORD          N/A     89  69  51 S8        29.82F HX  93
BAR HARBOR     MOSUNNY   78  67  68 SW16      29.83F
WISCASSET      CLOUDY    81  66  60 S8        29.83F
ROCKLAND       PTSUNNY   75  70  84 S7        29.83F
FRYEBURG       MOSUNNY   86  66  51 VRB6      29.82S
LEWISTONAUBURN CLOUDY    86  69  56 S8        29.82R HX  90
AUGUSTA        CLOUDY    79  61  53 N14       29.86R THUNDER
WATERVILLE     TSTM      66  64  94 VRB6      29.84R FOG
BANGOR         CLOUDY    81  68  64 S14       29.82R THUNDER
GREENVILLE       N/A     76  62  62 N5        29.85F
MILLINOCKET    MOSUNNY   76  66  71 VRB3      29.84F
HOULTON        CLOUDY    80  67  64 VRB5      29.83R
PRESQUE ISLE   LGT RAIN  66  65  96 CALM      29.85F
FRENCHVILLE    CLOUDY    77  61  57 N6        29.85S
CARIBOU        CLOUDY    71  64  78 S8        29.83F
$$

NHZ002-005-008-009-011-012-014-282100-
NEW HAMPSHIRE

CITY           SKY/WX    TMP DP  RH WIND       PRES   REMARKS
ROCHESTER      MOSUNNY   92  66  42 VRB3      29.81F HX  94
NASHUA         CLOUDY    93  63  36 S6        29.81F HX  94
MANCHESTER     CLOUDY    93  59  31 VRB3      29.80F HX  92
CONCORD        MOSUNNY   93  62  35 W8        29.82F HX  93
PLYMOUTH       FAIR      81  63  53 CALM      29.84S
BERLIN         PTSUNNY   82  61  48 VRB6      29.89S
WHITEFIELD     CLOUDY    80  65  59 N6        29.88S
JAFFREY        CLOUDY    88  58  36 VRB5      29.88F
KEENE          CLOUDY    90  63  40 NW10      29.84F HX  91
LEBANON        CLOUDY    85  62  46 W8        29.85S
MT WASHINGTON  LGT RAIN  57  57 100 W25         N/A  VSB 0
$$

VTZ005-007-008-282100-
VERMONT

CITY           SKY/WX    TMP DP  RH WIND       PRES   REMARKS
ST JOHNSBURY     N/A     82  60  47 MISG      29.86S
MONTPELIER     FAIR      76  67  73 CALM      29.94S
BURLINGTON     CLOUDY    74  66  76 SE3       29.90R
$$

MAZ007-012-024-CTZ003-RIZ002-NYZ038-NYZ072-282100-
SOUTHERN NEW ENGLAND AND NY

CITY           SKY/WX    TMP DP  RH WIND       PRES   REMARKS
BOSTON         CLOUDY    85  64  49 E7        29.82F
WORCESTER      CLOUDY    85  59  41 W6        29.89F
NANTUCKET      SUNNY     76  71  85 S10       29.89F
PROVIDENCE     PTSUNNY   84  71  65 S13       29.86S
HARTFORD       CLOUDY    96  61  31 N6        29.83F HX  96
ALBANY         CLOUDY    90  64  42 W9        29.84S HX  91
NEW YORK CITY  PTSUNNY   88  70  55 S21       29.85R HX  93
$$

ANZ081-ANZ082-ANZ150-NHZ014-MEZ023>029-282100-
COASTAL MARINE OBSERVATIONS

STATION/POSITION TIME  TEMP    WIND        PRES    WAVE
                       AIR SEA DIR/SP/G            HT/PER
                 (UTC) (F)     (DEG/KT/KT) (MB)    (FT/S)
MOUNT DESERT ROC 2000   66     160/ 16/ 17 1010.8F
MATINICUS ROCK   1900   68     180/ 16/ 16 1010.6F
ISLE OF SHOALS   1900   76     150/ 20/ 20 1009.7F
JEFFREYS LEDGE   1908      69                N/A     1/ 6
CASHES LEDGE BUO 1950   73 72  180/ 12/ 12 1010.7    2/ 6
GEORGES BANK BUO 1950   72 72              1013.2F   2/ 7
$$

.............KEY..............
   WCI - WIND CHILL
   TC  - TEMPERATURE IN CELSIUS
   VSB - VISIBILITY IN MILES
   HX  - HEAT INDEX
   FAIR- INDICATES FEW OR NO CLOUDS BELOW 12,000 FT, WITH NO
         SIGNIFICANT WEATHER AND/OR OBSTRUCTIONS TO VISIBILITY.






USA.gov is the U.S. government's official web portal to all federal, state and local government web resources and services.